Time,TemperatureF,DewpointF,PressureIn,WindDirection,WindDirectionDegrees,WindSpeedMPH,WindSpeedGustMPH,Humidity,HourlyPrecipIn,Conditions,Clouds,dailyrainin,SoftwareType,DateUTC
2013-04-11 00:03:00,70.0,68.0,29.98,NW,310,0.0,0.0,94,0.00,,,0.72,,2013-04-11 04:03:00,
2013-04-11 00:13:00,70.0,68.0,29.98,NW,310,0.0,0.0,94,0.00,,,0.72,,2013-04-11 04:13:00,
2013-04-11 00:22:00,70.0,68.0,29.98,NW,310,0.0,0.0,94,0.00,,,0.72,,2013-04-11 04:22:00,
2013-04-11 00:33:00,70.0,68.0,29.98,NW,310,0.0,0.0,94,0.00,,,0.72,,2013-04-11 04:33:00,
2013-04-11 00:43:00,70.0,68.0,29.98,NW,310,0.0,0.0,94,0.00,,,0.72,,2013-04-11 04:43:00,
2013-04-11 00:52:00,70.0,68.0,29.98,NNW,332,0.0,0.0,94,0.00,,,0.72,,2013-04-11 04:52:00,
2013-04-11 01:02:00,70.0,68.0,29.97,NNW,332,0.0,0.0,94,0.00,,,0.72,,2013-04-11 05:02:00,
2013-04-11 01:13:00,70.0,68.0,29.97,NNW,332,0.0,1.0,94,0.00,,,0.72,,2013-04-11 05:13:00,
2013-04-11 01:22:00,70.0,68.0,29.97,NNW,332,0.0,1.0,94,0.00,,,0.72,,2013-04-11 05:22:00,
2013-04-11 01:32:00,70.0,68.0,29.96,NNW,332,0.0,0.0,94,0.00,,,0.72,,2013-04-11 05:32:00,
2013-04-11 01:42:00,70.0,68.0,29.96,NNW,332,0.0,0.0,94,0.00,,,0.72,,2013-04-11 05:42:00,
2013-04-11 01:52:00,70.0,68.0,29.96,NNW,332,0.0,0.0,94,0.00,,,0.72,,2013-04-11 05:52:00,
2013-04-11 02:02:00,70.0,68.0,29.96,NNW,332,0.0,0.0,95,0.00,,,0.72,,2013-04-11 06:02:00,
2013-04-11 02:12:00,70.0,68.0,29.96,NNW,332,0.0,0.0,95,0.00,,,0.72,,2013-04-11 06:12:00,
2013-04-11 02:22:00,70.0,68.0,29.95,NNW,332,0.0,0.0,95,0.00,,,0.72,,2013-04-11 06:22:00,
2013-04-11 02:32:00,70.0,68.0,29.94,NNW,332,0.0,0.0,94,0.00,,,0.72,,2013-04-11 06:32:00,
2013-04-11 02:42:00,70.0,68.0,29.94,NNW,332,0.0,0.0,94,0.00,,,0.72,,2013-04-11 06:42:00,
2013-04-11 02:52:00,70.0,68.0,29.94,NNW,332,0.0,0.0,95,0.00,,,0.72,,2013-04-11 06:52:00,
2013-04-11 03:02:00,70.0,68.0,29.94,NNW,332,0.0,0.0,95,0.00,,,0.72,,2013-04-11 07:02:00,
2013-04-11 03:12:00,70.0,68.0,29.94,NNW,332,0.0,0.0,95,0.00,,,0.72,,2013-04-11 07:12:00,
2013-04-11 03:22:00,70.0,68.0,29.94,NNW,332,0.0,0.0,95,0.00,,,0.72,,2013-04-11 07:22:00,
2013-04-11 03:52:00,70.0,68.0,29.92,NNW,332,0.0,0.0,94,0.00,,,0.72,,2013-04-11 07:52:00,
2013-04-11 04:03:00,70.0,68.0,29.92,NNW,332,0.0,1.0,95,0.00,,,0.72,,2013-04-11 08:03:00,
2013-04-11 04:12:00,70.0,68.0,29.92,NNW,332,0.0,1.0,95,0.00,,,0.72,,2013-04-11 08:12:00,
2013-04-11 04:22:00,70.0,68.0,29.92,NNW,332,0.0,0.0,95,0.00,,,0.72,,2013-04-11 08:22:00,
2013-04-11 04:32:00,70.0,68.0,29.92,NNW,332,0.0,0.0,95,0.00,,,0.72,,2013-04-11 08:32:00,
2013-04-11 04:42:00,70.0,68.0,29.92,NNW,332,0.0,0.0,95,0.00,,,0.72,,2013-04-11 08:42:00,
2013-04-11 04:52:00,70.0,68.0,29.91,NNW,332,0.0,1.0,95,0.00,,,0.72,,2013-04-11 08:52:00,
2013-04-11 05:02:00,70.0,68.0,29.91,NNW,332,0.0,1.0,95,0.00,,,0.72,,2013-04-11 09:02:00,
2013-04-11 05:12:00,70.0,68.0,29.92,NNW,332,0.0,0.0,95,0.00,,,0.72,,2013-04-11 09:12:00,
2013-04-11 05:22:00,70.0,68.0,29.92,NNW,332,0.0,0.0,95,0.00,,,0.72,,2013-04-11 09:22:00,
2013-04-11 05:33:00,70.0,68.0,29.92,NNW,332,0.0,0.0,95,0.00,,,0.72,,2013-04-11 09:33:00,
2013-04-11 05:43:00,70.0,68.0,29.92,NNW,332,0.0,0.0,95,0.00,,,0.72,,2013-04-11 09:43:00,
2013-04-11 05:53:00,70.0,68.0,29.91,NNW,332,0.0,0.0,95,0.00,,,0.72,,2013-04-11 09:53:00,
2013-04-11 06:02:00,70.0,68.0,29.91,NNW,332,0.0,0.0,95,0.00,,,0.72,,2013-04-11 10:02:00,
2013-04-11 06:12:00,70.0,68.0,29.92,NNW,332,0.0,0.0,95,0.00,,,0.72,,2013-04-11 10:12:00,
2013-04-11 06:23:00,70.0,68.0,29.92,NNW,332,0.0,0.0,95,0.00,,,0.72,,2013-04-11 10:23:00,
2013-04-11 06:32:00,70.0,68.0,29.91,NNW,332,0.0,0.0,95,0.00,,,0.72,,2013-04-11 10:32:00,
2013-04-11 06:42:00,70.0,68.0,29.91,NNW,332,0.0,0.0,95,0.00,,,0.72,,2013-04-11 10:42:00,
2013-04-11 06:52:00,70.0,68.0,29.91,SE,135,0.0,1.0,95,0.00,,,0.72,,2013-04-11 10:52:00,
2013-04-11 07:03:00,70.0,68.0,29.91,SE,135,0.0,1.0,95,0.00,,,0.72,,2013-04-11 11:03:00,
2013-04-11 07:12:00,70.0,68.0,29.91,SE,135,0.0,1.0,95,0.00,,,0.72,,2013-04-11 11:12:00,
2013-04-11 07:23:00,70.0,68.0,29.93,SE,136,0.0,1.0,95,0.00,,,0.72,,2013-04-11 11:23:00,
2013-04-11 07:32:00,70.0,68.0,29.93,SE,136,0.0,1.0,95,0.00,,,0.72,,2013-04-11 11:32:00,
2013-04-11 07:43:00,70.0,68.0,29.93,SE,136,0.0,0.0,95,0.00,,,0.72,,2013-04-11 11:43:00,
2013-04-11 07:53:00,70.0,68.0,29.93,SE,136,0.0,0.0,95,0.00,,,0.72,,2013-04-11 11:53:00,
2013-04-11 08:02:00,70.0,68.0,29.93,SE,136,0.0,0.0,95,0.00,,,0.72,,2013-04-11 12:02:00,
2013-04-11 08:13:00,71.0,69.0,29.94,SSE,154,0.0,3.0,95,0.00,,,0.72,,2013-04-11 12:13:00,
2013-04-11 08:22:00,71.0,69.0,29.94,SSE,154,0.0,3.0,95,0.00,,,0.72,,2013-04-11 12:22:00,
2013-04-11 08:32:00,71.0,69.0,29.94,SE,132,1.0,3.0,95,0.01,,,0.73,,2013-04-11 12:32:00,
2013-04-11 08:42:00,71.0,69.0,29.94,SE,132,1.0,3.0,95,0.01,,,0.73,,2013-04-11 12:42:00,
2013-04-11 08:52:00,72.0,70.0,29.95,South,178,0.0,3.0,95,0.01,,,0.73,,2013-04-11 12:52:00,
2013-04-11 09:02:00,73.0,71.0,29.95,NE,46,0.0,4.0,95,0.01,,,0.73,,2013-04-11 13:02:00,
2013-04-11 09:13:00,74.0,72.0,29.95,South,171,0.0,4.0,94,0.01,,,0.73,,2013-04-11 13:13:00,
2013-04-11 09:23:00,74.0,72.0,29.95,South,171,0.0,4.0,94,0.01,,,0.73,,2013-04-11 13:23:00,
2013-04-11 09:32:00,75.0,73.0,29.95,ENE,69,0.0,5.0,93,0.01,,,0.73,,2013-04-11 13:32:00,
2013-04-11 09:43:00,75.0,73.0,29.95,ENE,69,0.0,5.0,93,0.01,,,0.73,,2013-04-11 13:43:00,
2013-04-11 09:54:00,75.0,73.0,29.95,ENE,69,0.0,5.0,93,0.01,,,0.73,,2013-04-11 13:54:00,
2013-04-11 10:02:00,77.0,73.0,29.95,SE,137,3.0,8.0,87,0.00,,,0.73,,2013-04-11 14:02:00,
2013-04-11 10:12:00,78.0,73.0,29.95,ESE,103,1.0,10.0,85,0.00,,,0.73,,2013-04-11 14:12:00,
2013-04-11 10:22:00,78.0,73.0,29.95,ESE,103,1.0,10.0,85,0.00,,,0.73,,2013-04-11 14:22:00,
2013-04-11 10:33:00,79.0,74.0,29.96,East,85,3.0,10.0,84,0.00,,,0.73,,2013-04-11 14:33:00,
2013-04-11 10:42:00,79.0,74.0,29.96,East,85,3.0,10.0,84,0.00,,,0.73,,2013-04-11 14:42:00,
2013-04-11 10:53:00,80.0,74.0,29.95,ESE,113,3.0,8.0,81,0.00,,,0.73,,2013-04-11 14:53:00,
2013-04-11 11:02:00,81.0,73.0,29.95,SE,144,4.0,10.0,78,0.00,,,0.73,,2013-04-11 15:02:00,
2013-04-11 11:12:00,81.0,73.0,29.95,SE,141,5.0,10.0,77,0.00,,,0.73,,2013-04-11 15:12:00,
2013-04-11 11:22:00,81.0,73.0,29.95,SE,141,5.0,10.0,77,0.00,,,0.73,,2013-04-11 15:22:00,
2013-04-11 11:32:00,81.0,73.0,29.95,SE,141,5.0,10.0,77,0.00,,,0.73,,2013-04-11 15:32:00,
2013-04-11 11:43:00,83.0,74.0,29.96,SE,132,2.0,10.0,74,0.00,,,0.73,,2013-04-11 15:43:00,
2013-04-11 11:52:00,83.0,74.0,29.96,SE,132,2.0,10.0,74,0.00,,,0.73,,2013-04-11 15:52:00,
2013-04-11 12:02:00,83.0,74.0,29.96,SE,132,2.0,10.0,74,0.00,,,0.73,,2013-04-11 16:02:00,
2013-04-11 12:13:00,83.0,74.0,29.96,SE,132,2.0,10.0,74,0.00,,,0.73,,2013-04-11 16:13:00,
2013-04-11 12:23:00,84.0,74.0,29.95,SSW,205,0.0,11.0,71,0.00,,,0.73,,2013-04-11 16:23:00,
2013-04-11 12:32:00,84.0,73.0,29.94,SSE,157,2.0,10.0,69,0.00,,,0.73,,2013-04-11 16:32:00,
2013-04-11 12:42:00,85.0,73.0,29.94,SE,138,3.0,14.0,68,0.00,,,0.73,,2013-04-11 16:42:00,
2013-04-11 12:52:00,85.0,73.0,29.94,SE,138,3.0,14.0,68,0.00,,,0.73,,2013-04-11 16:52:00,
2013-04-11 13:02:00,85.0,73.0,29.94,SE,138,3.0,14.0,68,0.00,,,0.73,,2013-04-11 17:02:00,
2013-04-11 13:13:00,85.0,73.0,29.94,SE,138,3.0,14.0,68,0.00,,,0.73,,2013-04-11 17:13:00,
2013-04-11 13:23:00,86.0,74.0,29.92,SSE,168,1.0,8.0,67,0.00,,,0.73,,2013-04-11 17:23:00,
2013-04-11 13:33:00,86.0,74.0,29.92,SSE,168,1.0,8.0,67,0.00,,,0.73,,2013-04-11 17:33:00,
2013-04-11 13:43:00,86.0,74.0,29.92,SSE,168,1.0,8.0,67,0.00,,,0.73,,2013-04-11 17:43:00,
2013-04-11 14:03:00,85.0,73.0,29.91,East,92,6.0,11.0,67,0.00,,,0.73,,2013-04-11 18:03:00,
2013-04-11 14:13:00,85.0,73.0,29.91,East,92,6.0,11.0,67,0.00,,,0.73,,2013-04-11 18:13:00,
2013-04-11 14:23:00,83.0,76.0,29.91,ESE,103,0.0,1.0,79,0.00,,,0.73,,2013-04-11 18:23:00,
2013-04-11 14:33:00,83.0,75.0,29.91,SSE,166,0.0,1.0,77,0.00,,,0.73,,2013-04-11 18:33:00,
2013-04-11 14:42:00,83.0,75.0,29.91,SSE,166,0.0,1.0,77,0.00,,,0.73,,2013-04-11 18:42:00,
2013-04-11 14:53:00,83.0,73.0,29.90,NNE,30,1.0,8.0,73,0.00,,,0.73,,2013-04-11 18:53:00,
2013-04-11 15:03:00,81.0,73.0,29.90,South,182,0.0,9.0,77,0.00,,,0.73,,2013-04-11 19:03:00,
2013-04-11 15:14:00,81.0,73.0,29.90,South,182,0.0,9.0,77,0.00,,,0.73,,2013-04-11 19:14:00,
2013-04-11 15:22:00,84.0,76.0,29.89,ESE,115,2.0,6.0,76,0.00,,,0.72,,2013-04-11 19:22:00,
2013-04-11 15:32:00,84.0,76.0,29.89,SE,136,4.0,6.0,76,0.00,,,0.72,,2013-04-11 19:32:00,
2013-04-11 15:43:00,84.0,76.0,29.89,SE,136,4.0,6.0,76,0.00,,,0.72,,2013-04-11 19:43:00,
2013-04-11 15:53:00,84.0,76.0,29.88,ENE,67,1.0,5.0,76,0.00,,,0.72,,2013-04-11 19:53:00,
2013-04-11 16:02:00,84.0,76.0,29.88,South,176,1.0,7.0,76,0.00,,,0.72,,2013-04-11 20:02:00,
2013-04-11 16:13:00,82.0,75.0,29.87,NE,53,0.0,5.0,79,0.00,,,0.63,,2013-04-11 20:13:00,
2013-04-11 16:22:00,82.0,75.0,29.87,NE,53,0.0,5.0,79,0.00,,,0.63,,2013-04-11 20:22:00,
2013-04-11 16:33:00,82.0,74.0,29.86,SSE,162,0.0,5.0,78,0.00,,,0.63,,2013-04-11 20:33:00,
2013-04-11 16:42:00,82.0,74.0,29.86,SSE,162,0.0,5.0,78,0.00,,,0.63,,2013-04-11 20:42:00,
2013-04-11 16:53:00,83.0,75.0,29.86,ESE,114,0.0,5.0,77,0.00,,,0.63,,2013-04-11 20:53:00,
2013-04-11 17:03:00,85.0,75.0,29.85,SE,146,3.0,5.0,73,0.00,,,0.27,,2013-04-11 21:03:00,
2013-04-11 17:12:00,85.0,75.0,29.85,SE,146,3.0,5.0,73,0.00,,,0.27,,2013-04-11 21:12:00,
2013-04-11 17:22:00,86.0,74.0,29.85,SSW,211,3.0,6.0,67,0.00,,,0.18,,2013-04-11 21:22:00,
2013-04-11 17:33:00,86.0,74.0,29.85,SE,128,5.0,8.0,67,0.00,,,0.18,,2013-04-11 21:33:00,
2013-04-11 17:42:00,86.0,74.0,29.85,SE,128,5.0,8.0,67,0.00,,,0.18,,2013-04-11 21:42:00,
2013-04-11 17:54:00,86.0,75.0,29.84,ESE,113,3.0,6.0,70,0.00,,,0.18,,2013-04-11 21:54:00,
2013-04-11 18:03:00,86.0,75.0,29.84,ESE,113,3.0,6.0,70,0.00,,,0.18,,2013-04-11 22:03:00,
2013-04-11 18:13:00,86.0,75.0,29.84,ESE,113,3.0,6.0,70,0.00,,,0.18,,2013-04-11 22:13:00,
2013-04-11 18:23:00,84.0,74.0,29.85,SSE,149,3.0,7.0,72,0.00,,,0.14,,2013-04-11 22:23:00,
2013-04-11 18:33:00,84.0,75.0,29.85,South,184,2.0,9.0,74,0.00,,,0.14,,2013-04-11 22:33:00,
2013-04-11 18:44:00,84.0,75.0,29.85,South,184,2.0,9.0,74,0.00,,,0.14,,2013-04-11 22:44:00,
2013-04-11 18:53:00,83.0,73.0,29.85,SSW,202,0.0,6.0,73,0.00,,,0.02,,2013-04-11 22:53:00,
2013-04-11 19:03:00,83.0,73.0,29.85,SSW,202,0.0,6.0,73,0.00,,,0.02,,2013-04-11 23:03:00,
2013-04-11 19:13:00,83.0,73.0,29.85,SSW,202,0.0,6.0,73,0.00,,,0.02,,2013-04-11 23:13:00,
2013-04-11 19:23:00,82.0,73.0,29.85,SSW,193,2.0,8.0,74,0.00,,,0.02,,2013-04-11 23:23:00,
2013-04-11 19:32:00,81.0,73.0,29.85,South,178,1.0,6.0,76,0.00,,,0.01,,2013-04-11 23:32:00,
2013-04-11 19:43:00,81.0,73.0,29.85,South,178,1.0,6.0,76,0.00,,,0.01,,2013-04-11 23:43:00,
2013-04-11 19:53:00,81.0,73.0,29.85,East,96,0.0,6.0,77,0.00,,,0.01,,2013-04-11 23:53:00,
2013-04-11 20:02:00,80.0,73.0,29.85,SE,126,0.0,3.0,79,0.00,,,0.01,,2013-04-12 00:02:00,
2013-04-11 20:12:00,80.0,73.0,29.85,SE,126,0.0,3.0,79,0.00,,,0.01,,2013-04-12 00:12:00,
2013-04-11 20:22:00,79.0,73.0,29.86,SE,127,0.0,0.0,81,0.00,,,0.01,,2013-04-12 00:22:00,
2013-04-11 20:32:00,79.0,73.0,29.86,SE,127,0.0,0.0,81,0.00,,,0.01,,2013-04-12 00:32:00,
2013-04-11 20:42:00,79.0,73.0,29.86,SE,127,0.0,0.0,81,0.00,,,0.01,,2013-04-12 00:42:00,
2013-04-11 20:53:00,78.0,72.0,29.85,SE,127,0.0,1.0,83,0.00,,,0.01,,2013-04-12 00:53:00,
2013-04-11 21:02:00,78.0,73.0,29.85,SE,127,0.0,0.0,85,0.00,,,0.01,,2013-04-12 01:02:00,
2013-04-11 21:12:00,78.0,73.0,29.85,SE,127,0.0,0.0,85,0.00,,,0.01,,2013-04-12 01:12:00,
2013-04-11 21:22:00,77.0,72.0,29.86,SE,127,0.0,0.0,86,0.00,,,0.01,,2013-04-12 01:22:00,
2013-04-11 21:32:00,77.0,72.0,29.86,SE,127,0.0,0.0,86,0.00,,,0.01,,2013-04-12 01:32:00,
2013-04-11 21:42:00,77.0,72.0,29.86,SE,127,0.0,0.0,86,0.00,,,0.01,,2013-04-12 01:42:00,
2013-04-11 21:52:00,77.0,72.0,29.86,SE,134,0.0,3.0,86,0.00,,,0.01,,2013-04-12 01:52:00,
2013-04-11 22:03:00,76.0,72.0,29.86,East,87,0.0,3.0,86,0.00,,,0.01,,2013-04-12 02:03:00,
2013-04-11 22:12:00,76.0,72.0,29.86,East,87,0.0,3.0,86,0.00,,,0.01,,2013-04-12 02:12:00,
2013-04-11 22:22:00,77.0,72.0,29.86,ENE,71,0.0,3.0,85,0.00,,,0.01,,2013-04-12 02:22:00,
2013-04-11 22:32:00,77.0,72.0,29.85,East,95,0.0,4.0,86,0.00,,,0.01,,2013-04-12 02:32:00,
2013-04-11 22:42:00,77.0,72.0,29.85,East,95,0.0,4.0,86,0.00,,,0.01,,2013-04-12 02:42:00,
2013-04-11 22:52:00,76.0,72.0,29.85,SSE,158,1.0,3.0,86,0.00,,,0.01,,2013-04-12 02:52:00,
2013-04-11 23:02:00,76.0,72.0,29.85,SSE,158,1.0,3.0,86,0.00,,,0.01,,2013-04-12 03:02:00,
2013-04-11 23:12:00,76.0,72.0,29.85,SSE,158,1.0,3.0,86,0.00,,,0.01,,2013-04-12 03:12:00,
2013-04-11 23:22:00,76.0,72.0,29.85,SW,219,5.0,6.0,86,0.00,,,0.01,,2013-04-12 03:22:00,
2013-04-11 23:33:00,76.0,72.0,29.85,ESE,113,1.0,6.0,87,0.00,,,0.01,,2013-04-12 03:33:00,
2013-04-11 23:43:00,76.0,72.0,29.85,ESE,113,1.0,6.0,87,0.00,,,0.01,,2013-04-12 03:43:00,
2013-04-11 23:53:00,76.0,72.0,29.85,ESE,113,1.0,6.0,87,0.00,,,0.01,,2013-04-12 03:53:00,